Time,TemperatureF,DewpointF,PressureIn,WindDirection,WindDirectionDegrees,WindSpeedMPH,WindSpeedGustMPH,Humidity,HourlyPrecipIn,Conditions,Clouds,dailyrainin,SoftwareType,DateUTC
2013-05-25 00:08:00,51.4,37.0,30.11,NW,318,1.0,10.0,59,0.00,,,0.07,weatherlink.com 1.10,2013-05-25 04:08:00,
2013-05-25 00:23:00,51.3,37.0,30.11,NW,315,6.0,12.0,59,0.00,,,0.00,weatherlink.com 1.10,2013-05-25 04:23:00,
2013-05-25 00:38:00,51.0,36.0,30.11,NW,309,5.0,13.0,58,0.00,,,0.00,weatherlink.com 1.10,2013-05-25 04:38:00,
2013-05-25 00:53:00,50.8,37.0,30.10,NW,304,7.0,9.0,59,0.00,,,0.00,weatherlink.com 1.10,2013-05-25 04:53:00,
2013-05-25 01:08:00,50.7,37.0,30.10,NW,304,1.0,8.0,59,0.00,,,0.00,weatherlink.com 1.10,2013-05-25 05:08:00,
2013-05-25 01:23:00,50.6,37.0,30.10,WNW,298,0.0,8.0,60,0.00,,,0.00,weatherlink.com 1.10,2013-05-25 05:23:00,
2013-05-25 01:38:00,50.5,36.0,30.09,NW,313,3.0,7.0,59,0.00,,,0.00,weatherlink.com 1.10,2013-05-25 05:38:00,
2013-05-25 01:53:00,50.2,35.0,30.10,NW,306,2.0,10.0,57,0.00,,,0.00,weatherlink.com 1.10,2013-05-25 05:53:00,
2013-05-25 02:08:00,49.9,35.0,30.10,NW,324,6.0,11.0,57,0.00,,,0.00,weatherlink.com 1.10,2013-05-25 06:08:00,
2013-05-25 02:23:00,49.7,36.0,30.09,NNW,340,3.0,7.0,60,0.00,,,0.00,weatherlink.com 1.10,2013-05-25 06:23:00,
2013-05-25 02:38:00,49.6,35.0,30.09,West,278,2.0,10.0,58,0.00,,,0.00,weatherlink.com 1.10,2013-05-25 06:38:00,
2013-05-25 02:53:00,49.5,35.0,30.09,WNW,301,6.0,12.0,58,0.00,,,0.00,weatherlink.com 1.10,2013-05-25 06:53:00,
2013-05-25 03:08:00,49.2,35.0,30.09,WNW,298,6.0,11.0,59,0.00,,,0.00,weatherlink.com 1.10,2013-05-25 07:08:00,
2013-05-25 03:23:00,49.0,36.0,30.09,WNW,294,1.0,10.0,62,0.00,,,0.00,weatherlink.com 1.10,2013-05-25 07:23:00,
2013-05-25 03:38:00,48.9,36.0,30.09,NW,309,4.0,10.0,62,0.00,,,0.00,weatherlink.com 1.10,2013-05-25 07:38:00,
2013-05-25 03:53:00,48.6,37.0,30.09,West,270,1.0,7.0,65,0.00,,,0.00,weatherlink.com 1.10,2013-05-25 07:53:00,
2013-05-25 04:08:00,48.3,37.0,30.09,NW,315,5.0,12.0,66,0.00,,,0.00,weatherlink.com 1.10,2013-05-25 08:08:00,
2013-05-25 04:23:00,48.3,37.0,30.10,North,355,2.0,10.0,66,0.00,,,0.00,weatherlink.com 1.10,2013-05-25 08:23:00,
2013-05-25 04:39:00,48.1,37.0,30.10,WNW,300,4.0,12.0,65,0.00,,,0.00,weatherlink.com 1.10,2013-05-25 08:39:00,
2013-05-25 04:54:00,48.1,37.0,30.10,WNW,286,4.0,18.0,66,0.00,,,0.00,weatherlink.com 1.10,2013-05-25 08:54:00,
2013-05-25 05:09:00,48.0,37.0,30.10,NW,315,1.0,11.0,67,0.00,,,0.00,weatherlink.com 1.10,2013-05-25 09:09:00,
2013-05-25 05:24:00,47.9,37.0,30.10,NNW,335,8.0,9.0,67,0.00,,,0.00,weatherlink.com 1.10,2013-05-25 09:24:00,
2013-05-25 05:39:00,47.9,38.0,30.11,WNW,299,4.0,11.0,68,0.00,,,0.00,weatherlink.com 1.10,2013-05-25 09:39:00,
2013-05-25 05:54:00,47.9,39.0,30.10,WNW,298,1.0,8.0,70,0.00,,,0.00,weatherlink.com 1.10,2013-05-25 09:54:00,
2013-05-25 06:09:00,47.9,38.0,30.10,WNW,290,0.0,10.0,68,0.00,,,0.00,weatherlink.com 1.10,2013-05-25 10:09:00,
2013-05-25 06:24:00,47.9,38.0,30.11,NW,313,6.0,11.0,68,0.00,,,0.00,weatherlink.com 1.10,2013-05-25 10:24:00,
2013-05-25 06:39:00,48.0,38.0,30.11,NW,322,5.0,10.0,68,0.00,,,0.00,weatherlink.com 1.10,2013-05-25 10:39:00,
2013-05-25 06:54:00,48.2,38.0,30.11,WNW,300,2.0,11.0,69,0.00,,,0.00,weatherlink.com 1.10,2013-05-25 10:54:00,
2013-05-25 07:09:00,48.3,39.0,30.12,NW,306,7.0,12.0,70,0.00,,,0.00,weatherlink.com 1.10,2013-05-25 11:09:00,
2013-05-25 07:24:00,48.6,39.0,30.12,NW,312,3.0,11.0,69,0.00,,,0.00,weatherlink.com 1.10,2013-05-25 11:24:00,
2013-05-25 07:39:00,48.8,39.0,30.12,WNW,302,4.0,10.0,69,0.00,,,0.00,weatherlink.com 1.10,2013-05-25 11:39:00,
2013-05-25 07:54:00,49.1,39.0,30.12,NW,310,9.0,12.0,68,0.00,,,0.00,weatherlink.com 1.10,2013-05-25 11:54:00,
2013-05-25 08:09:00,49.4,39.0,30.13,NNW,338,3.0,13.0,67,0.00,,,0.00,weatherlink.com 1.10,2013-05-25 12:09:00,
2013-05-25 08:24:00,49.8,39.0,30.13,WNW,287,2.0,8.0,66,0.00,,,0.00,weatherlink.com 1.10,2013-05-25 12:24:00,
2013-05-25 08:39:00,50.3,38.0,30.14,NW,306,2.0,12.0,64,0.00,,,0.00,weatherlink.com 1.10,2013-05-25 12:39:00,
2013-05-25 08:54:00,50.7,38.0,30.14,WNW,297,4.0,9.0,63,0.00,,,0.00,weatherlink.com 1.10,2013-05-25 12:54:00,
2013-05-25 09:09:00,51.3,39.0,30.13,NW,315,2.0,13.0,62,0.00,,,0.00,weatherlink.com 1.10,2013-05-25 13:09:00,
2013-05-25 09:24:00,51.8,38.0,30.13,West,277,2.0,9.0,59,0.00,,,0.00,weatherlink.com 1.10,2013-05-25 13:24:00,
2013-05-25 09:39:00,52.7,38.0,30.13,WNW,284,2.0,11.0,58,0.00,,,0.00,weatherlink.com 1.10,2013-05-25 13:39:00,
2013-05-25 09:54:00,53.6,39.0,30.13,NW,318,4.0,8.0,58,0.00,,,0.00,weatherlink.com 1.10,2013-05-25 13:54:00,
2013-05-25 10:09:00,54.2,39.0,30.12,West,281,4.0,11.0,57,0.00,,,0.00,weatherlink.com 1.10,2013-05-25 14:09:00,
2013-05-25 10:24:00,55.3,39.0,30.12,NNW,337,3.0,8.0,55,0.00,,,0.00,weatherlink.com 1.10,2013-05-25 14:24:00,
2013-05-25 10:39:00,55.7,39.0,30.12,NW,309,5.0,9.0,54,0.00,,,0.00,weatherlink.com 1.10,2013-05-25 14:39:00,
2013-05-25 10:54:00,56.2,39.0,30.12,NW,308,3.0,10.0,53,0.00,,,0.00,weatherlink.com 1.10,2013-05-25 14:54:00,
2013-05-25 11:09:00,56.8,39.0,30.12,NW,320,6.0,10.0,51,0.00,,,0.00,weatherlink.com 1.10,2013-05-25 15:09:00,
2013-05-25 11:24:00,57.1,40.0,30.12,West,269,0.0,9.0,53,0.00,,,0.00,weatherlink.com 1.10,2013-05-25 15:24:00,
2013-05-25 11:39:00,57.5,39.0,30.11,NW,311,4.0,10.0,50,0.00,,,0.00,weatherlink.com 1.10,2013-05-25 15:39:00,
2013-05-25 11:54:00,58.1,41.0,30.11,NW,315,3.0,6.0,53,0.00,,,0.00,weatherlink.com 1.10,2013-05-25 15:54:00,
2013-05-25 12:09:00,58.1,39.0,30.11,NW,319,3.0,8.0,50,0.00,,,0.00,weatherlink.com 1.10,2013-05-25 16:09:00,
2013-05-25 12:24:00,59.1,39.0,30.11,WNW,292,4.0,8.0,48,0.00,,,0.00,weatherlink.com 1.10,2013-05-25 16:24:00,
2013-05-25 12:39:00,59.4,39.0,30.10,WNW,296,2.0,7.0,48,0.00,,,0.00,weatherlink.com 1.10,2013-05-25 16:39:00,
2013-05-25 12:54:00,60.3,40.0,30.11,WNW,302,5.0,7.0,47,0.00,,,0.00,weatherlink.com 1.10,2013-05-25 16:54:00,
2013-05-25 13:10:00,60.4,40.0,30.10,NW,305,5.0,9.0,48,0.00,,,0.00,weatherlink.com 1.10,2013-05-25 17:10:00,
2013-05-25 13:25:00,60.2,39.0,30.10,North,355,4.0,8.0,46,0.00,,,0.00,weatherlink.com 1.10,2013-05-25 17:25:00,
2013-05-25 13:40:00,60.7,41.0,30.10,SSE,157,1.0,8.0,48,0.00,,,0.00,weatherlink.com 1.10,2013-05-25 17:40:00,
2013-05-25 13:55:00,60.3,41.0,30.10,WNW,287,6.0,10.0,49,0.00,,,0.00,weatherlink.com 1.10,2013-05-25 17:55:00,
2013-05-25 14:10:00,61.9,40.0,30.09,WNW,290,5.0,9.0,44,0.00,,,0.00,weatherlink.com 1.10,2013-05-25 18:10:00,
2013-05-25 14:25:00,62.2,40.0,30.09,WNW,292,4.0,7.0,44,0.00,,,0.00,weatherlink.com 1.10,2013-05-25 18:25:00,
2013-05-25 14:40:00,61.9,41.0,30.09,WNW,288,4.0,8.0,47,0.00,,,0.00,weatherlink.com 1.10,2013-05-25 18:40:00,
2013-05-25 14:55:00,62.9,40.0,30.08,NNW,332,0.0,7.0,43,0.00,,,0.00,weatherlink.com 1.10,2013-05-25 18:55:00,
2013-05-25 15:10:00,63.8,39.0,30.07,WSW,252,1.0,6.0,41,0.00,,,0.00,weatherlink.com 1.10,2013-05-25 19:10:00,
2013-05-25 15:25:00,63.0,41.0,30.07,NW,315,2.0,9.0,45,0.00,,,0.00,weatherlink.com 1.10,2013-05-25 19:25:00,
2013-05-25 15:40:00,63.0,39.0,30.07,NW,306,2.0,9.0,42,0.00,,,0.00,weatherlink.com 1.10,2013-05-25 19:40:00,
2013-05-25 15:55:00,63.0,38.0,30.07,NW,311,5.0,10.0,40,0.00,,,0.00,weatherlink.com 1.10,2013-05-25 19:55:00,
2013-05-25 16:10:00,63.0,39.0,30.07,NW,313,0.0,7.0,41,0.00,,,0.00,weatherlink.com 1.10,2013-05-25 20:10:00,
2013-05-25 16:25:00,63.6,39.0,30.06,West,281,2.0,7.0,41,0.00,,,0.00,weatherlink.com 1.10,2013-05-25 20:25:00,
2013-05-25 16:40:00,63.6,41.0,30.06,NW,309,4.0,8.0,43,0.00,,,0.00,weatherlink.com 1.10,2013-05-25 20:40:00,
2013-05-25 16:55:00,63.8,39.0,30.06,WNW,300,1.0,5.0,41,0.00,,,0.00,weatherlink.com 1.10,2013-05-25 20:55:00,
2013-05-25 17:10:00,62.9,38.0,30.07,NW,311,1.0,7.0,40,0.00,,,0.00,weatherlink.com 1.10,2013-05-25 21:10:00,
2013-05-25 17:25:00,62.9,39.0,30.07,NW,315,1.0,10.0,41,0.00,,,0.00,weatherlink.com 1.10,2013-05-25 21:25:00,
2013-05-25 17:40:00,63.4,40.0,30.06,WNW,298,2.0,6.0,42,0.00,,,0.00,weatherlink.com 1.10,2013-05-25 21:40:00,
2013-05-25 17:55:00,63.6,40.0,30.06,NW,313,2.0,10.0,42,0.00,,,0.00,weatherlink.com 1.10,2013-05-25 21:55:00,
2013-05-25 18:10:00,63.4,39.0,30.06,WNW,300,1.0,10.0,41,0.00,,,0.00,weatherlink.com 1.10,2013-05-25 22:10:00,
2013-05-25 18:25:00,63.5,40.0,30.06,NW,309,0.0,9.0,42,0.00,,,0.00,weatherlink.com 1.10,2013-05-25 22:25:00,
2013-05-25 18:40:00,63.3,39.0,30.07,WNW,298,1.0,6.0,41,0.00,,,0.00,weatherlink.com 1.10,2013-05-25 22:40:00,
2013-05-25 18:55:00,63.1,39.0,30.06,NW,307,0.0,5.0,42,0.00,,,0.00,weatherlink.com 1.10,2013-05-25 22:55:00,
2013-05-25 19:10:00,63.1,39.0,30.07,NW,304,2.0,6.0,41,0.00,,,0.00,weatherlink.com 1.10,2013-05-25 23:10:00,
2013-05-25 19:25:00,62.9,40.0,30.07,SW,235,1.0,7.0,43,0.00,,,0.00,weatherlink.com 1.10,2013-05-25 23:25:00,
2013-05-25 19:40:00,62.6,40.0,30.07,NNE,32,2.0,5.0,44,0.00,,,0.00,weatherlink.com 1.10,2013-05-25 23:40:00,
2013-05-25 19:55:00,62.4,40.0,30.07,North,350,0.0,4.0,44,0.00,,,0.00,weatherlink.com 1.10,2013-05-25 23:55:00,
2013-05-25 20:10:00,62.2,40.0,30.07,NNW,348,1.0,5.0,45,0.00,,,0.00,weatherlink.com 1.10,2013-05-26 00:10:00,
2013-05-25 20:25:00,62.1,41.0,30.07,NNW,329,0.0,3.0,46,0.00,,,0.00,weatherlink.com 1.10,2013-05-26 00:25:00,
2013-05-25 20:40:00,61.9,40.0,30.07,West,279,2.0,5.0,45,0.00,,,0.00,weatherlink.com 1.10,2013-05-26 00:40:00,
2013-05-25 20:55:00,61.7,41.0,30.07,ENE,65,0.0,2.0,47,0.00,,,0.00,weatherlink.com 1.10,2013-05-26 00:55:00,
2013-05-25 21:10:00,61.4,41.0,30.07,East,101,0.0,5.0,47,0.00,,,0.00,weatherlink.com 1.10,2013-05-26 01:10:00,
2013-05-25 21:25:00,61.1,42.0,30.08,ENE,69,1.0,3.0,49,0.00,,,0.00,weatherlink.com 1.10,2013-05-26 01:25:00,
2013-05-25 21:40:00,61.1,41.0,30.08,ESE,121,2.0,4.0,48,0.00,,,0.00,weatherlink.com 1.10,2013-05-26 01:40:00,
2013-05-25 21:55:00,61.1,41.0,30.09,NNE,19,1.0,4.0,48,0.00,,,0.00,weatherlink.com 1.10,2013-05-26 01:55:00,
2013-05-25 22:10:00,60.9,41.0,30.10,WNW,296,0.0,4.0,49,0.00,,,0.00,weatherlink.com 1.10,2013-05-26 02:10:00,
2013-05-25 22:25:00,60.8,41.0,30.10,NW,319,0.0,5.0,48,0.00,,,0.00,weatherlink.com 1.10,2013-05-26 02:25:00,
2013-05-25 22:40:00,60.6,41.0,30.11,NNW,328,3.0,5.0,48,0.00,,,0.00,weatherlink.com 1.10,2013-05-26 02:40:00,
2013-05-25 22:55:00,60.5,41.0,30.11,NW,323,2.0,5.0,49,0.00,,,0.00,weatherlink.com 1.10,2013-05-26 02:55:00,
2013-05-25 23:10:00,60.0,41.0,30.11,NW,314,1.0,4.0,49,0.00,,,0.00,weatherlink.com 1.10,2013-05-26 03:10:00,
2013-05-25 23:25:00,59.8,40.0,30.12,WNW,303,0.0,4.0,48,0.00,,,0.00,weatherlink.com 1.10,2013-05-26 03:25:00,
2013-05-25 23:40:00,59.6,39.0,30.12,WNW,298,1.0,4.0,47,0.00,,,0.00,weatherlink.com 1.10,2013-05-26 03:40:00,
2013-05-25 23:55:00,59.5,40.0,30.12,WNW,287,1.0,5.0,48,0.00,,,0.00,weatherlink.com 1.10,2013-05-26 03:55:00,